Current Version              Previous Version:    01  02  03  04  05  06  07  08  09  10  11  12  13  14  15  16  17  18  19  20  21  22  23  24  25  26  27  28  29  30  
   31  32  33  34  35  36  37  38  39  40  41  42  43  44  45  46  47  48  49  50  51  52  53  54  55  56  57  58  59  60  

[Printable]
235
ASUS44 KEWX 201302
RWRTX
SOUTH TEXAS REGIONAL WEATHER ROUNDUP
NATIONAL WEATHER SERVICE AUSTIN/SAN ANTONIO TX
800 AM CDT WED AUG 20 2014

NOTE: "FAIR" INDICATED FEW OR NO CLOUDS BELOW 12,000 FEET WITH NO
SIGNIFICANT WEATHER AND/OR OBSTRUCTIONS TO VISIBILITY.

* - THESE STATIONS ARE NOT NWS OR FAA STATIONS...AND ARE NOT SUBJECT
    TO NWS AND FAA QUALITY CONTROL.

TXZ171-172-183>190-201400-
TEXAS HILL COUNTRY AND EDWARDS PLATEAU

CITY           SKY/WX    TMP DP  RH WIND       PRES   REMARKS
JUNCTION       PTCLDY    73  68  84 SE3       29.98R
*LLANO         PTSUNNY   75  72  88 CALM      30.01R
BURNET         MOSUNNY   76  71  85 S5        30.01R
*HORSESHOE BAY MOSUNNY   77  71  82 S6        29.97R
*KERRVILLE     PTSUNNY   74  71  89 S12G21    29.99R
*FREDERICKSBRG SUNNY     74  68  82 S9        30.00R
*ROCKSPRINGS     N/A     72  68  88 SE18G24     N/A
*BOERNE STAGE  PTSUNNY   73  70  88 S8        30.00R
*CASTROVILLE   CLOUDY    78  72  81 SE6       29.97S
HONDO          SUNNY     76  73  91 SE12      29.98R
*UVALDE        MOCLDY    75  74  95 E8        29.95S FOG
DEL RIO        PTCLDY    78  70  76 E10       29.91R
LAUGHLIN AFB   MOCLDY    75  72  88 SE10      29.93R
CARRIZO SPRGS  CLEAR     77  70  78 SE6       29.90R
$$

TXZ173-191>194-202-209-217>225-228-201400-
CENTRAL AND SOUTH CENTRAL TEXAS

CITY           SKY/WX    TMP DP  RH WIND       PRES   REMARKS
GEORGETOWN     MOSUNNY   79  73  83 S6        29.99R
AUSTIN/BERGSTM MOSUNNY   80  75  84 S12       29.96R
AUSTIN/MABRY   CLOUDY    80  75  84 S8        29.97S
*AUSTIN/EXEC   MOSUNNY   79  75  89 S6        29.98R
*LAGO VISTA    PTSUNNY   78  73  82 S6        29.99S
SAN MARCOS     PTSUNNY   79  72  78 MISG      29.98R
NEW BRAUNFELS  CLOUDY    79  75  87 S8        29.96R
RANDOLPH AFB   PTSUNNY   79  73  83 S8        29.97R
PT SAN ANTONIO MOSUNNY   78  74  88 SE8       29.95R
SAN ANTONIO    PTSUNNY   80  74  81 S10       29.97R
STINSON FIELD  CLOUDY    78  75  90 SE5       29.94R
*PLEASANTON    CLOUDY    78  74  87 E3        29.95R
*LA GRANGE     MOSUNNY   79  77  93 CALM      29.95S
*GIDDINGS      PTSUNNY   77  74  92 CALM      30.00R FOG
*GONZALES      MOSUNNY   79  77  92 S6        29.95S
$$

TXZ163>164-176>182-195>201-210>213-226-227-235-201400-
SOUTHEAST TEXAS

CITY           SKY/WX    TMP DP  RH WIND       PRES   REMARKS
COLLEGE STN    MOSUNNY   78  75  90 S5        29.98R
*BRYAN         MOSUNNY   77  75  94 CALM      29.98R
*CALDWELL      MOSUNNY   75  75 100 CALM      30.01R
*CROCKETT        N/A    N/A N/A N/A MISG        N/A
*BRENHAM       MOSUNNY   78  76  94 SE3       29.98R FOG
HUNTSVILLE     SUNNY     76  74  93 CALM      29.99R
CONROE         MOSUNNY   74  74 100 CALM      30.00R FOG
HOUSTON BUSH   MOSUNNY   79  77  94 E5        29.98R
HOUSTON HOBBY  MOSUNNY   81  76  84 CALM      29.97R
*HOUSTON SW AP SUNNY     79  79  99 MISG      29.98R
PEARLAND       MOSUNNY   81  76  84 SE3       29.98R
HOUSTON HOOKS  SUNNY     77  76  96 CALM      29.99R
ELLINGTON FLD  MOSUNNY   81  77  89 CALM      29.98R
SUGAR LAND     NOT AVBL
*HOUSTON EXEC  SUNNY     77  77 100 E5        29.98R
*CLEVELAND MUN SUNNY     74  73  99 CALM      30.00R FOG
*WHARTON       SUNNY     78  76  94 E3        29.97R
$$

TXZ214>216-236>238-201400-
THE UPPER TEXAS COAST

CITY           SKY/WX    TMP DP  RH WIND       PRES   REMARKS
*ORANGE        SUNNY     76  76 100 CALM      30.02R FOG
PORT ARTHUR    SUNNY     81  77  88 S5        29.99R
GALVESTON      MOSUNNY   86  77  74 S10       29.98R HX  97
ANGLETON       MOSUNNY   80  77  90 CALM      29.96R
*BAY CITY      SUNNY     82  82 100 SE3       29.95S HX  96
PALACIOS       MOSUNNY   84  78  82 SE10      29.95R HX  95
$$

TXZ229>234-239>247-201400-
TEXAS COASTAL BEND AND RIO GRANDE PLAINS

CITY           SKY/WX    TMP DP  RH WIND       PRES   REMARKS
VICTORIA       SUNNY     81  78  91 SE5       29.95R
*BEEVILLE      SUNNY     78  77  98 E3        29.93S
ROCKPORT       MOSUNNY   84  78  82 S6        29.93R HX  95
*PORT ARANSAS  SUNNY     82  78  89 S5        29.93R HX  91
*PORT LAVACA   SUNNY     82  78  89 SE7       29.94R HX  90
*INGLESIDE     SUNNY     83  78  84 SE6       29.93R HX  93
CORPUS CHRISTI MOSUNNY   80  77  90 SE6       29.92R
CORPUS NAS     MOSUNNY   83  80  91 SE9       29.92R HX  95
*ROBSTOWN      NOT AVBL
ALICE          SUNNY     78  76  93 CALM      29.92R FOG
KINGSVILLE NAS MOSUNNY   81  80  97 SE6       29.92R HX  91
COTULLA        SUNNY     78  73  84 SE6       29.92R
*FAITH RANCH   CLEAR     77  70  78 SE13      29.90R
LAREDO         CLEAR     80  73  79 SE9       29.92R
$$

TXZ248>255-201400-
DEEP SOUTH TEXAS

CITY           SKY/WX    TMP DP  RH WIND       PRES   REMARKS
BROWNSVILLE    SUNNY     80  78  94 SE5       29.91R
PORT ISABEL    SUNNY     83  77  82 SE8       29.91R HX  92
*SOUTH PADRE     N/A     77  77 100 SE6       29.91R
HARLINGEN      MOSUNNY   79  77  94 SE6       29.90R
*HEBBRONVILLE  CLOUDY    77  74  91 SE7       29.93R FOG
MCALLEN        SUNNY     79  76  90 SE10      29.90S
*WESLACO       MOSUNNY   80  74  81 SE6       29.90R HAZE
FALFURRIAS     SUNNY     82  71  69 CALM      29.91R
EDINBURG       SUNNY     82  75  81 SE9       29.90R
*ZAPATA        CLEAR     79  72  80 SE7       29.90R
$$

TXZ213>215-236>238-242>244-246-247-251-254-255-201400-
CMAN STATIONS

STATION/POSITION TIME  TEMP    WIND        PRES    WAVE
                       AIR SEA DIR/SP/G            HT/PER
                 (UTC) (F)     (DEG/KT/KT) (MB)    (FT/S)
SABINE PASS      1200   84 86  190/  7/ 11 1015.7
SEA RIM ST PARK  1200   84     180/ 10/ 13 1015.7
NORTH JETTY/GLS  1200   85 86  190/ 16/ 18   N/A
EAGLE POINT      1200   85 85  180/  9/ 11 1014.9
MORGANS POINT    1200   84     160/  5/  8 1015.0
MISSION/ARANSAS  1200   83     150/ 12     1014.0
PORT O`CONNOR    1200          140/ 11/ 12   N/A
PORT ARANSAS     1200   82 83  150/ 10/ 10 1013.4
MALAQUITE BEACH  1200   81 78  130/  8/  9 1012.4
BAFFIN BAY       1200   81 80  150/  9/ 12 1012.8
PORT ISABEL      1200   81 80  140/  7/  8 1012.8
$$

GMZ080-GMZ150>470-201400-
OFFSHORE BUOY REPORTS

STATION/POSITION TIME  TEMP    WIND        PRES    WAVE
                       AIR SEA DIR/SP/G            HT/PER
                 (UTC) (F)     (DEG/KT/KT) (MB)    (FT/S)
90 E PT ARANSAS  1300   84 85  140/ 12/ 12 1014.5    3/ 5
35 NE PT MANSFLD 1200   84 86  160/ 16/ 17 1012.0    3/ 5
200 E PT ISABEL  1200   86 86  150/ 12/ 14 1014.3    4/ 6
$$